Location: Asarope
(8.2500°N, 4.4833°E)
Time: 22:44:01
(UTC+00:00)

ISO - Pass Details

Date: 07 June 2020
Orbit: 613 x 69998 km, 0.1° (Epoch: 09 July)

Event Time Altitude Azimuth Distance (km) Brightness Sun altitude
Exits shadow 04:27:40 19° 230° (SW) 1,644 3.6 -13.4°
Maximum altitude 04:29:38 28° 183° (S) 1,150 3.2 -12.9°
Drops below altitude 10° 04:32:52 10° 118° (ESE) 2,112 5.3 -12.2°
Sets 04:35:52 0° 105° (ESE) 3,630 6.8 -11.6°
